Caldwell, NJ

10:15 PM EST on November 17, 2019 (GMT -0500)
Essex County

Weather History for KCDW - September, 2019

Change the Weather History Date:

Wednesday, September 25, 2019

  Actual Average Record
Temperature  
Mean Temperature 66 °F -  
Max Temperature 81 °F 69 °F 90 °F (1959)
Min Temperature 52 °F 46 °F 32 °F (1963)
Cooling Degree Days 1    
Growing Degree Days 16 (Base 50)    
Moisture  
Dew Point 52 °F    
Average Humidity 66    
Maximum Humidity 93    
Minimum Humidity 36    
Precipitation  
Precipitation 0.00 in - - ()
Sea Level Pressure  
Sea Level Pressure 29.89 in    
Wind  
Wind Speed 1 mph ()    
Max Wind Speed 10 mph    
Max Gust Speed -    
Visibility 10.0 miles    
Events      
Averages and records for this station are not official NWS values.
T = Trace of Precipitation, MM = Missing Value Source: Averaged Metar Reports

Daily Weather History Graph

Daily Weather History Graph

Search for Another Location

Airport or City:

Astronomy

Sep. 25, 2019 Rise Set
Actual Time 6:47 AM EDT 6:49 PM EDT
Civil Twilight 6:20 AM EDT 7:16 PM EDT
Nautical Twilight 5:48 AM EDT 7:48 PM EDT
Astronomical Twilight 5:15 AM EDT 8:21 PM EDT
Moon 2:35 AM EDT (9/25) 5:21 PM EDT (9/25)
Length of Visible Light 12h 56m
Length of Day
12h 02m
Waning Crescent, 14% of the Moon is Illuminated
Sep 25
Waning Crescent
Sep 28
New
Oct 5
First Quarter
Oct 13
Full
Oct 21
Last Quarter

Hourly Weather History & Observations

Time (EDT) Temp. Dew Point Humidity Pressure Visibility Wind Dir Wind Speed Gust Speed Precip Events Conditions
12:53 AM 57.0 °F 52.0 °F 83% 29.91 in 10.0 mi Calm Calm - N/A   Clear
1:53 AM 55.9 °F 52.0 °F 87% 29.90 in 10.0 mi Calm Calm - N/A   Clear
2:53 AM 55.0 °F 51.1 °F 86% 29.89 in 10.0 mi Calm Calm - N/A   Clear
3:53 AM 54.0 °F 52.0 °F 93% 29.89 in 10.0 mi Calm Calm - N/A   Clear
4:53 AM 55.0 °F 52.0 °F 89% 29.92 in 10.0 mi Calm Calm - N/A   Clear
5:53 AM 53.1 °F 51.1 °F 93% 29.94 in 10.0 mi Calm Calm - N/A   Clear
6:53 AM 52.0 °F 50.0 °F 93% 29.94 in 10.0 mi Calm Calm - N/A   Clear
7:53 AM 55.9 °F 52.0 °F 87% 29.95 in 10.0 mi Calm Calm - N/A   Clear
8:53 AM 61.0 °F 53.1 °F 75% 29.95 in 10.0 mi Calm Calm - N/A   Clear
9:53 AM 66.0 °F 53.1 °F 63% 29.94 in 10.0 mi Calm Calm - N/A   Clear
10:53 AM 71.1 °F 53.1 °F 53% 29.94 in 10.0 mi Variable 3.5 mph - N/A   Clear
11:53 AM 73.9 °F 52.0 °F 46% 29.92 in 10.0 mi North - - N/A   Scattered Clouds
12:53 PM 77.0 °F 50.0 °F 39% 29.90 in 10.0 mi WNW 10.4 mph - N/A   Scattered Clouds
1:53 PM 77.0 °F 50.0 °F 39% 29.87 in 10.0 mi West 8.1 mph - N/A   Clear
2:53 PM 78.1 °F 51.1 °F 39% 29.85 in 10.0 mi Variable 4.6 mph - N/A   Clear
3:53 PM 79.0 °F 51.1 °F 38% 29.84 in 10.0 mi Variable 4.6 mph - N/A   Clear
4:53 PM 80.1 °F 51.1 °F 36% 29.84 in 10.0 mi Calm Calm - N/A   Clear
5:53 PM 78.1 °F 52.0 °F 40% 29.84 in 10.0 mi WSW 4.6 mph - N/A   Clear
6:53 PM 75.0 °F 51.1 °F 43% 29.85 in 10.0 mi Calm Calm - N/A   Clear
7:53 PM 68.0 °F 54.0 °F 61% 29.86 in 10.0 mi Calm Calm - N/A   Clear
8:53 PM 66.0 °F 54.0 °F 65% 29.87 in 10.0 mi Calm Calm - N/A   Clear
9:53 PM 63.0 °F 54.0 °F 72% 29.88 in 10.0 mi Calm Calm - N/A   Clear
10:53 PM 63.0 °F 54.0 °F 72% 29.89 in 10.0 mi Calm Calm - N/A   Clear
11:53 PM 59.0 °F 54.0 °F 83% 29.89 in 10.0 mi Calm Calm - N/A   Clear